Location: Foulognes
(49.1413°N, 0.8183°W)
Time: 23:36:27
(UTC+00:00)

STARLINK-34 - Pass Details

Date: 21 October 2019
Orbit: 548 x 551 km, 53.0° (Epoch: 16 November)

Event Time Altitude Azimuth Distance (km) Brightness Sun altitude
Rises 17:37:49 0° 269° (W) 2,716 9.6 -6.5°
Reaches altitude 10° 17:40:05 10° 274° (W) 1,824 7.9 -6.9°
Maximum altitude 17:44:09 52° 352° (N) 691 4.1 -7.5°
Drops below altitude 10° 17:48:13 10° 69° (ENE) 1,828 5.6 -8.2°
Enters shadow 17:48:14 10° 69° (ENE) 1,837 5.7 -8.2°
